Torna al catalogo

METEOR 2-11 DEB

AttivoPO
NORAD 40318·DEBRIS·🇷🇺 Russia

Lanciato Jul 5, 1984 da Plesetsk Cosmodrome

Loading…

Prossimi Passaggi (prossime 24 ore)

TLE

AggiornatoSource: Space-Track

Epoca: Sep 13, 2026, 10:47 UTC

1 40318U 84072D   26256.44956410  .00001504  00000-0  10802-2 0  9994
2 40318  82.5282 307.9721 0020954 116.3631 304.6156 13.96258361597533

Traccia METEOR 2-11 DEB in tempo reale con AllMySat

Download on the App Store